Location: Bethera
(33.2010°N, 79.7880°W)
Time: 18:56:12
(UTC-04:00)

Amateur Radio Satellites - All Passes

Search period start: 31 October 2014 18:26
Search period end: 01 November 2014 18:26
Location: Bethera, 33.2010°N, 79.7880°W

Satellite Date Start Highest point End Downlink Frequencies (MHz)
Time Altitude Azimuth
JAS-2 31 Oct 18:34:59 18:40:55 57° 261° (W) 18:47:43 435.800 - 435.900 CW/SSB, 435.910 FM
Hamsat 31 Oct 18:38:44 18:42:52 64° 259° (W) 18:47:01 145.90 MHz
KITSAT 1 31 Oct 18:40:24 18:43:21 12° 38° (NE) 18:46:17 435.175 FM
ISS 31 Oct 18:47:26 18:50:08 23° 231° (SW) 18:52:49 145.800 FM
SO-67 31 Oct 19:22:15 19:25:28 39° 75° (ENE) 19:28:41 435.3500 MHz FM
RS-15 31 Oct 19:40:00 19:47:00 19° 101° (E) 19:53:54 29.354 - 29.394 USB, Beacon 29.352 USB
OPAL 31 Oct 19:45:36 19:49:22 22° 294° (WNW) 19:53:08 ?
STRAND 1 31 Oct 20:02:30 20:07:38 69° 102° (ESE) 20:12:43 ?
HO-68 31 Oct 20:04:09 20:08:48 19° 60° (ENE) 20:13:28 435.675 MHz FM
AO-40 31 Oct 20:05:19 22:21:34 21° 108° (ESE) 23:31:14 Beacon 2401.320
KITSAT 1 31 Oct 20:32:39 20:40:36 58° 60° (ENE) 20:48:30 435.175 FM
SO-50 31 Oct 20:46:05 20:50:55 64° 60° (ENE) 20:55:45 436.795 FM
Oscar 10/S400 31 Oct 20:55:43 21:35:10 62° 203° (SSW) 07:41:51 145.825 - 145.975 CW/USB, Beacon 145.810 USB
Oscar 11 31 Oct 21:22:31 21:25:15 17° 69° (ENE) 21:27:58 145.825 FM, Beacon 2401.500 USB
UOSAT-12 31 Oct 21:29:39 21:32:44 17° 50° (NE) 21:35:46 437.025 FM, 437.400 FM
FUNcube-1 31 Oct 21:41:28 21:42:52 11° 67° (ENE) 21:44:15 145.950 - 145.970 MHz USB
STRAND 1 31 Oct 21:44:20 21:46:10 12° 296° (WNW) 21:48:00 ?
MaSat-1 31 Oct 21:46:42 21:50:11 28° 108° (ESE) 21:53:25 437.345 MHz
RS-15 31 Oct 21:46:51 21:57:56 84° 298° (WNW) 22:08:54 29.354 - 29.394 USB, Beacon 29.352 USB
HO-68 31 Oct 21:48:36 21:55:44 72° 256° (WSW) 22:02:56 435.675 MHz FM
UKube-1 31 Oct 22:21:57 22:26:18 85° 257° (WSW) 22:30:41 145.840 MHz, 145.915 MHz
KITSAT 1 31 Oct 22:29:06 22:35:24 26° 255° (WSW) 22:41:42 435.175 FM
SO-50 31 Oct 22:29:09 22:30:55 12° 253° (WSW) 22:32:40 436.795 FM
ZACube-1 31 Oct 22:31:38 22:35:58 45° 74° (ENE) 22:40:14 437.345 MHz
Oscar 11 31 Oct 22:57:12 23:01:07 34° 262° (W) 23:05:03 145.825 FM, Beacon 2401.500 USB
UOSAT-12 31 Oct 23:08:37 23:13:08 48° 246° (WSW) 23:17:33 437.025 FM, 437.400 FM
FUNcube-1 31 Oct 23:14:16 23:18:44 56° 260° (W) 23:23:08 145.950 - 145.970 MHz USB
MaSat-1 31 Oct 23:23:04 23:25:31 16° 298° (WNW) 23:27:51 437.345 MHz
RS-15 01 Nov 00:04:01 00:12:02 23° 322° (NW) 00:20:07 29.354 - 29.394 USB, Beacon 29.352 USB
ZACube-1 01 Nov 00:10:18 00:12:29 13° 267° (W) 00:14:40 437.345 MHz
Oscar 16 01 Nov 01:44:21 01:47:25 16° 94° (E) 01:50:28 437.025 USB, Beacon 2401.1428
Sapphire 01 Nov 01:51:06 01:55:45 30° 108° (ESE) 02:00:26 437.095 MHz 1200 baud AX-25 AFSK
PCSat 01 Nov 02:12:00 02:17:14 54° 111° (ESE) 02:22:31 145.825 MHz
AO-Echo 01 Nov 02:15:11 02:18:36 17° 93° (E) 02:21:59 ?
JAS-1B 01 Nov 02:17:01 02:24:11 44° 100° (E) 02:32:32 435.800 - 435.900 CW/SSB
Uribyol 2 01 Nov 02:18:45 02:21:16 14° 93° (E) 02:23:46 436.500 FM
ITAMSAT 1 01 Nov 02:26:23 02:29:26 16° 94° (E) 02:32:28 435.822 SSB
Oscar 19 01 Nov 02:34:47 02:39:48 54° 101° (E) 02:44:48 437.125 CW, 437.150 USB
PANSAT 01 Nov 03:07:16 03:09:35 15° 159° (SSE) 03:11:55 not established
AO-27 01 Nov 03:12:30 03:17:33 49° 100° (E) 03:22:34 436.795 MHz FM
Oscar 16 01 Nov 03:22:03 03:26:57 47° 287° (WNW) 03:31:50 437.025 USB, Beacon 2401.1428
Gurwin Techsat 1B 01 Nov 03:31:11 03:36:07 38° 98° (E) 03:41:02 435.225 FM
Sapphire 01 Nov 03:34:22 03:39:04 30° 303° (WNW) 03:43:48 437.095 MHz 1200 baud AX-25 AFSK
TMSAT-1 01 Nov 03:37:21 03:42:04 32° 97° (E) 03:46:44 436.925 FM
AO-Echo 01 Nov 03:52:28 03:57:32 47° 287° (WNW) 04:02:32 ?
Uribyol 2 01 Nov 03:55:57 04:01:01 56° 286° (WNW) 04:06:03 436.500 FM
PCSat 01 Nov 03:57:15 04:00:57 19° 307° (NW) 04:04:41 145.825 MHz
AO-7 01 Nov 04:03:24 04:07:51 15° 93° (E) 04:12:17 29.400 - 29.500 MHz
ITAMSAT 1 01 Nov 04:04:07 04:09:08 50° 287° (WNW) 04:14:07 435.822 SSB
JAS-1B 01 Nov 04:08:00 04:14:31 35° 291° (WNW) 04:22:05 435.800 - 435.900 CW/SSB
Oscar 19 01 Nov 04:15:51 04:18:38 15° 295° (WNW) 04:21:25 437.125 CW, 437.150 USB
RS-15 01 Nov 04:42:14 04:50:04 21° 36° (NE) 04:58:03 29.354 - 29.394 USB, Beacon 29.352 USB
PANSAT 01 Nov 04:45:46 04:49:16 33° 171° (S) 04:52:46 not established
AO-27 01 Nov 04:53:22 04:56:36 17° 294° (WNW) 04:59:50 436.795 MHz FM
Gurwin Techsat 1B 01 Nov 05:11:49 05:15:47 22° 293° (WNW) 05:19:44 435.225 FM
Saudisat 1A 01 Nov 05:16:18 05:20:06 30° 112° (ESE) 05:23:55 436.775 MHz
OPAL 01 Nov 05:17:02 05:21:46 39° 70° (ENE) 05:26:27 ?
TMSAT-1 01 Nov 05:17:29 05:21:47 26° 291° (WNW) 05:26:05 436.925 FM
Uosat F 01 Nov 05:44:13 05:49:17 78° 103° (ESE) 05:54:18 435.120 FM
JAS-2 01 Nov 05:49:04 05:55:50 31° 94° (E) 06:02:16 435.800 - 435.900 CW/SSB, 435.910 FM
AO-7 01 Nov 05:53:00 06:01:22 87° 288° (WNW) 06:09:44 29.400 - 29.500 MHz
PANSAT 01 Nov 06:25:31 06:29:08 39° 184° (S) 06:32:44 not established
Hamsat 01 Nov 06:28:43 06:32:26 29° 97° (E) 06:36:09 145.90 MHz
RS-15 01 Nov 06:53:17 07:04:35 76° 61° (ENE) 07:16:22 29.354 - 29.394 USB, Beacon 29.352 USB
Saudisat 1A 01 Nov 06:56:11 06:59:38 22° 307° (NW) 07:03:06 436.775 MHz
OPAL 01 Nov 06:57:01 07:00:41 20° 263° (W) 07:04:21 ?
STRAND 1 01 Nov 07:14:08 07:19:12 64° 74° (ENE) 07:24:18 ?
Uosat F 01 Nov 07:26:57 07:27:20 10° 297° (WNW) 07:27:44 435.120 FM
JAS-2 01 Nov 07:33:27 07:40:54 48° 290° (WNW) 07:48:00 435.800 - 435.900 CW/SSB, 435.910 FM
AO-7 01 Nov 07:48:17 07:52:58 17° 305° (NW) 07:57:40 29.400 - 29.500 MHz
Hamsat 01 Nov 08:05:14 08:08:08 18° 290° (WNW) 08:11:02 145.90 MHz
PANSAT 01 Nov 08:05:49 08:08:55 23° 196° (SSW) 08:12:00 not established
SO-67 01 Nov 08:21:58 08:25:26 90° 262° (W) 08:28:51 435.3500 MHz FM
STRAND 1 01 Nov 08:57:03 08:58:44 12° 268° (W) 09:00:25 ?
RS-15 01 Nov 09:07:26 09:15:52 25° 257° (WSW) 09:24:37 29.354 - 29.394 USB, Beacon 29.352 USB
MaSat-1 01 Nov 09:11:21 09:12:04 11° 255° (WSW) 09:12:46 437.345 MHz
HO-68 01 Nov 09:21:46 09:27:45 28° 97° (E) 09:33:40 435.675 MHz FM
ISS 01 Nov 09:49:15 09:52:33 86° 135° (SE) 09:55:52 145.800 FM
UKube-1 01 Nov 10:15:02 10:18:27 22° 96° (E) 10:21:51 145.840 MHz, 145.915 MHz
ZACube-1 01 Nov 10:27:48 10:28:45 11° 92° (E) 10:29:42 437.345 MHz
Sapphire 01 Nov 10:45:06 10:46:57 12° 48° (NE) 10:48:47 437.095 MHz 1200 baud AX-25 AFSK
Oscar 11 01 Nov 10:48:30 10:52:45 57° 100° (E) 10:56:59 145.825 FM, Beacon 2401.500 USB
KITSAT 1 01 Nov 10:55:33 11:03:34 72° 113° (ESE) 11:11:36 435.175 FM
SO-50 01 Nov 10:56:59 11:01:19 54° 115° (ESE) 11:05:47 436.795 FM
PCSat 01 Nov 11:05:06 11:08:55 19° 53° (NE) 11:12:43 145.825 MHz
FUNcube-1 01 Nov 11:07:51 11:11:42 35° 98° (E) 11:15:30 145.950 - 145.970 MHz USB
HO-68 01 Nov 11:08:45 11:15:32 47° 291° (WNW) 11:22:18 435.675 MHz FM
ISS 01 Nov 11:28:28 11:29:38 11° 331° (NNW) 11:30:49 145.800 FM
UOSAT-12 01 Nov 11:38:56 11:40:19 11° 106° (ESE) 11:41:43 437.025 FM, 437.400 FM
UKube-1 01 Nov 11:50:58 11:54:32 25° 290° (WNW) 11:58:05 145.840 MHz, 145.915 MHz
ZACube-1 01 Nov 12:01:23 12:05:21 44° 286° (WNW) 12:09:18 437.345 MHz
Sapphire 01 Nov 12:25:38 12:31:06 89° 65° (ENE) 12:36:31 437.095 MHz 1200 baud AX-25 AFSK
Oscar 11 01 Nov 12:28:19 12:28:23 10° 294° (WNW) 12:28:27 145.825 FM, Beacon 2401.500 USB
SO-50 01 Nov 12:39:39 12:42:12 15° 312° (NW) 12:44:48 436.795 FM
FUNcube-1 01 Nov 12:45:30 12:47:43 14° 292° (WNW) 12:49:57 145.950 - 145.970 MHz USB
PCSat 01 Nov 12:47:21 12:52:36 52° 249° (WSW) 12:57:49 145.825 MHz
KITSAT 1 01 Nov 12:53:23 12:59:37 24° 312° (NW) 13:05:54 435.175 FM
Oscar 16 01 Nov 12:57:43 13:00:49 16° 66° (ENE) 13:03:53 437.025 USB, Beacon 2401.1428
JAS-1B 01 Nov 13:01:49 13:05:32 18° 65° (ENE) 13:09:13 435.800 - 435.900 CW/SSB
UOSAT-12 01 Nov 13:15:19 13:19:52 60° 301° (WNW) 13:24:31 437.025 FM, 437.400 FM
AO-Echo 01 Nov 13:24:55 13:27:31 14° 65° (ENE) 13:30:10 ?
Uribyol 2 01 Nov 13:32:51 13:35:40 15° 65° (ENE) 13:38:29 436.500 FM
ITAMSAT 1 01 Nov 13:40:38 13:43:51 17° 66° (ENE) 13:47:04 435.822 SSB
Oscar 19 01 Nov 13:47:29 13:52:26 51° 73° (ENE) 13:57:24 437.125 CW, 437.150 USB
AO-27 01 Nov 14:26:26 14:31:26 49° 73° (ENE) 14:36:28 436.795 MHz FM
Oscar 16 01 Nov 14:34:43 14:39:42 50° 260° (W) 14:44:42 437.025 USB, Beacon 2401.1428
Gurwin Techsat 1B 01 Nov 14:48:09 14:53:04 40° 72° (ENE) 14:58:00 435.225 FM
JAS-1B 01 Nov 14:50:15 14:55:50 46° 260° (W) 15:01:17 435.800 - 435.900 CW/SSB
TMSAT-1 01 Nov 14:54:02 14:58:45 33° 70° (ENE) 15:03:27 436.925 FM
AO-7 01 Nov 14:58:56 15:03:36 17° 55° (NE) 15:08:16 29.400 - 29.500 MHz
AO-Echo 01 Nov 15:00:51 15:05:42 56° 260° (W) 15:10:44 ?
Uribyol 2 01 Nov 15:09:29 15:14:36 57° 259° (W) 15:19:45 436.500 FM
ITAMSAT 1 01 Nov 15:17:50 15:22:52 50° 260° (W) 15:27:57 435.822 SSB
Saudisat 1A 01 Nov 15:25:31 15:29:58 88° 60° (ENE) 15:34:22 436.775 MHz
Oscar 19 01 Nov 15:29:11 15:32:00 15° 267° (W) 15:34:49 437.125 CW, 437.150 USB
AO-27 01 Nov 16:08:03 16:11:09 16° 266° (W) 16:14:16 436.795 MHz FM
ISS 01 Nov 16:22:00 16:24:13 16° 32° (NNE) 16:26:25 145.800 FM
Gurwin Techsat 1B 01 Nov 16:29:18 16:33:07 20° 265° (W) 16:36:57 435.225 FM
TMSAT-1 01 Nov 16:34:23 16:38:38 24° 264° (W) 16:42:54 436.925 FM
AO-7 01 Nov 16:46:56 16:55:13 88° 72° (ENE) 17:03:32 29.400 - 29.500 MHz
Uosat F 01 Nov 16:53:11 16:58:09 68° 75° (ENE) 17:03:10 435.120 FM
Hamsat 01 Nov 17:19:45 17:21:37 13° 68° (ENE) 17:23:28 145.90 MHz
OPAL 01 Nov 17:32:46 17:35:16 14° 95° (E) 17:37:45 ?
JAS-2 01 Nov 17:40:04 17:46:02 53° 71° (ENE) 17:52:49 435.800 - 435.900 CW/SSB, 435.910 FM
ISS 01 Nov 17:57:51 18:01:04 46° 228° (SW) 18:04:16 145.800 FM
